Regional Weather Roundup
Issued by NWS Newport/Morehead, NC

Home | Current Version | Previous Version | Text Only | Print | Product List | Glossary On
Versions: 1 2 3 4 5 6 7 8 9 10 11 12 13 14 15 16 17 18 19 20 21 22 23 24 25 26 27 28 29 30 31 32 33 34 35 36 37 38 39 40 41 42 43 44 45 46 47 48 49 50
000
ASUS42 KMHX 261725
RWRMHX
WEATHER ROUNDUP FOR EASTERN NORTH CAROLINA
NATIONAL WEATHER SERVICE NEWPORT/MOREHEAD CITY NC
100 PM EDT THU APR 26 2018

NOTE: "FAIR" INDICATES FEW OR NO CLOUDS BELOW 12,000 FEET
WITH NO SIGNIFICANT WEATHER AND/OR OBSTRUCTIONS TO VISIBILITY

NCZ015>017-031-032-045>047-102-103-261800-
NORTH COAST

CITY           SKY/WX    TMP DP  RH WIND       PRES   REMARKS
EDENTON        FAIR      71  59  67 E8        29.90S
ELIZABETH CITY FAIR      69  56  62 VRB5      29.90S
KITTY HAWK     CLOUDY    61  47  59 CALM      29.91S
MANTEO         CLOUDY    61  47  62 E10       29.92S

$$

NCZ045>047-081-094-103-104-261800-
CENTRAL COAST

CITY           SKY/WX    TMP DP  RH WIND       PRES   REMARKS
FRISCO         FAIR      72  57  59 SE13      29.91F

$$

NCZ095-097-098-100-101-261800-
SOUTHERN COAST

CITY           SKY/WX    TMP DP  RH WIND       PRES   REMARKS
BEAUFORT       FAIR      72  60  66 SE9       29.89F
CEDAR ISLAND   NOT AVBL
JACKSONVILLE   PTSUNNY   75  58  55 SE7       29.87F
PINEY ISLAND   NOT AVBL
WILMINGTON     FAIR      77  56  48 VRB6G16   29.87F


$$

NCZ011>013-027>030-043-044-078>080-089-090>093-098-261800-
COASTAL PLAIN

CITY           SKY/WX    TMP DP  RH WIND       PRES   REMARKS
AHOSKIE        FAIR      68  53  58 SE6       29.89F
CLINTON        FAIR      74  58  55 S3        29.88F
ELIZABETHTOWN  FAIR      76  55  49 MISG      29.87F
GOLDSBORO      NOT AVBL
GREENVILLE     FAIR      73  54  49 W7        29.90S
HAVELOCK       PTSUNNY   78  61  55 SW10G18   29.89S
KENANSVILLE    FAIR      77  55  47 SW6       29.87F
KINSTON        PTSUNNY   75  54  46 S9        29.89S
NEW BERN       PTSUNNY   73  59  61 SE6       29.89S
RICHLANDS      PTSUNNY   76  57  51 VRB6      29.88F
ROCKY MOUNT    PTSUNNY   72  57  59 VRB3      29.89S
WASHINGTON     CLOUDY    75  55  48 CALM      29.88S
WHITEVILLE     FAIR      76  56  50 S5        29.86F

$$

AMZ130-135-150-152-154-156-158-170-250-252-270-ANZ085-086-088-633-658-670-261800-
MARINE OBSERVATIONS

STATION/POSITION TIME  TEMP    WIND        PRES    WAVE   SWELL
                       AIR SEA DIR/SP/G            HT/PER HT/PER
                 (UTC) (F)     (DEG/KT/KT) (MB)    (FT/S) (FT/S)
CHESAPEAKE LIGHT NOT AVBL
64 E VA BEACH    1650   53 52  320/  4/  6 1013.5    7/11   7/11
DUCK             1700   58 54   70/  9/  9 1012.4
2 E DUCK         1700      56                N/A     5/11   3/11
OREGON INLET     1700   60 59   50/  8/ 10 1013.0
13E OREGON INLT  1648      58                N/A     6/10   7/10
HATTERAS CG      1700   67 67  110/  9/ 13 1012.6
DIAMOND BUOY     1710   67 71   50/  6/  8 1013.1
CAPE LOOKOUT     1700          120/  8/  9 1012.7
BEAUFORT LAB     1700   69 65  150/  6/ 10 1012.5
30 SE NEW RVR IN 1708   68 67  130/  6/  8 1010.9
30 SE NEW RVR IN 1700      68                N/A     4/ 9   2/11
27 SE WRIGHTSVLE 1708   68 66  130/  6/  8 1012.5
5 SE WRIGHTSVLE  1708   65 64  100/  6/  8 1011.7
225 S CAPE HAT   1710   72 74  220/ 14/ 16 1013.8
41 SE CHARLESTON 1710      70  200/  8/ 10 1012.2

$$




USA.gov is the U.S. government's official web portal to all federal, state and local government web resources and services.